Location: Hains Lake
(37.8540°N, 99.8578°W)
Time: 03:47:10
(UTC+00:00)

Vanguard 2 Rocket - Pass Details

Date: 20 April 2021
Orbit: 553 x 3326 km, 32.9° (Epoch: 07 May)

Event Time Altitude Azimuth Distance (km) Brightness Sun altitude
Rises 02:24:58 0° 283° (WNW) 7,178 13.2 -12.9°
Reaches altitude 10° 02:30:44 10° 276° (W) 5,919 12.2 -14.0°
Maximum altitude 02:45:09 34° 221° (SW) 3,314 9.8 -16.5°
Enters shadow 02:54:21 11° 162° (SSE) 3,830 9.6 -18.0°
Drops below altitude 10° 02:54:40 10° 161° (SSE) 3,891 - -18.1°
Sets 02:57:37 0° 151° (SSE) 4,531 - -18.6°
